Temp
40 42 43 42 43 44 39 39 33 40 41 48 51 48 49 53 55 55 55 56 55 53 52 53 53 54 55 55 56 54 54 54 53 54 54 54 54 54 54 54 55 56 56 57
36 43 43 40 44 45 46 46 44 45 44 51 54 52 53 51 53 54 54 55 55 55 55 54 54 54 55 54 53 53 52 52 54 54 54 54 53 53 53 53 53 53 54 55
30 39 39 32 41 44 45 43 42 36 40 47 47 49 47 48 51 51 53 54 54 54 53 52 52 54 50 51 52 51 52 54 55 56 56 56 56 54 52 50 52 50 50 52
30 32 23 40 51 52 45 45 44 47 50 49 48 53 53 50 45 50 52 52 51 50 49 49 50 49 49 49 49 49 49 51 54 54 55 56 56 55 54 49 48 48 49 50
26 24 36 42 45 44 41 40 46 45 50 51 50 48 49 52 51 49 48 48 48 48 49 51 49 46 45 45 46 47 48 49 50 52 51 52 54 54 54 49 48 47 49 50
31 27 24 37 47 50 48 35 50 51 46 46 45 36 41 50 50 49 49 49 49 50 48 44 46 45 44 45 46 46 47 48 49 48 48 50 52 53 54 50 52 51 51 50
32 30 33 45 50 51 31 34 47 47 48 44 41 43 47 48 47 48 48 48 48 45 45 44 44 43 44 45 44 45 47 46 46 47 46 47 47 49 51 52 52 50 49 50
33 31 29 49 49 40 41 43 47 48 46 45 45 45 46 47 46 47 46 47 47 45 45 47 48 46 44 43 44 44 43 42 42 43 46 47 46 48 50 50 50 50 50 51
35 36 45 50 45 46 46 45 47 46 47 45 43 44 45 46 45 45 45 46 46 46 45 46 46 44 40 41 42 41 40 39 40 42 44 45 43 45 47 48 48 48 49 49
38 43 46 47 47 48 49 49 52 49 45 44 43 45 44 44 43 46 43 44 45 42 41 42 43 41 40 39 38 38 37 38 39 39 40 42 44 45 45 45 45 47 47 48
38 45 44 47 49 49 50 52 49 49 47 46 45 44 44 43 44 42 43 43 42 40 40 39 39 38 39 38 37 36 36 37 37 38 38 39 41 42 44 47 46 46 47 50
33 43 41 43 47 50 49 51 51 47 45 46 46 44 44 41 41 41 41 41 39 40 38 36 36 36 37 38 36 34 34 34 35 36 37 37 37 38 41 41 41 41 41 45
41 47 46 49 49 54 52 48 47 45 45 44 45 44 41 40 40 42 40 40 38 37 35 35 34 35 36 37 35 33 33 34 34 35 36 36 37 37 36 40 41 41 39 39
47 47 45 49 46 49 48 47 48 47 46 46 45 42 42 39 40 39 38 38 38 36 34 33 33 34 36 34 33 33 33 34 33 34 34 35 36 37 38 37 37 39 40 40
50 52 51 51 51 47 46 45 43 43 44 43 44 43 41 39 38 38 38 38 36 34 33 33 32 33 34 33 32 32 33 33 34 35 35 35 36 36 37 37 38 38 40 40
53 52 51 48 46 45 44 43 41 41 43 43 43 41 40 40 38 38 36 36 32 30 31 31 31 32 32 32 32 33 34 35 36 36 36 35 35 35 36 37 37 38 39 40
48 43 44 43 43 43 42 43 42 43 43 42 40 40 40 39 37 36 35 35 33 31 31 30 29 30 32 33 32 33 34 35 36 37 37 37 36 36 36 37 36 37 38 41
48 46 45 43 42 41 42 44 44 44 42 42 41 40 38 35 33 33 33 34 31 30 30 29 29 31 31 32 32 33 35 39 45 42 42 41 39 39 38 37 37 37 38 39
49 49 47 46 44 43 43 43 43 43 43 42 39 37 38 35 34 33 33 31 29 26 27 29 31 31 30 31 33 34 40 45 46 48 48 43 45 43 42 39 38 38 39 40
47 47 47 46 47 45 43 45 44 43 44 40 39 38 35 34 34 32 31 29 28 27 29 28 30 29 29 32 34 37 40 42 44 45 46 47 46 43 41 38 41 41 41 42
46 48 47 47 46 46 44 44 45 42 42 40 38 37 34 33 33 32 29 27 29 29 29 30 29 28 29 31 34 37 38 39 40 41 42 43 44 47 44 43 44 44 43 44
47 50 47 47 45 43 44 44 43 43 40 40 39 37 35 32 32 31 31 28 29 28 28 28 28 28 29 31 34 35 36 37 37 38 38 40 41 42 45 46 45 45 44 44
48 50 47 47 45 42 45 43 43 42 39 38 37 34 34 32 31 28 26 30 29 28 27 27 27 27 29 31 32 32 33 34 34 35 36 37 38 38 40 41 45 45 45 46
48 48 46 47 46 43 41 41 41 41 41 39 38 37 34 31 31 31 31 30 29 28 27 27 27 27 29 29 30 30 31 31 32 33 34 34 35 36 36 37 39 41 45 46
46 45 45 43 42 40 41 41 39 38 39 37 37 37 36 34 31 30 30 30 29 28 27 27 27 27 28 28 28 28 29 30 31 31 32 33 33 33 34 35 35 36 38 40
43 41 42 43 41 40 40 38 36 35 37 35 36 36 35 35 34 32 31 30 29 28 27 27 26 26 26 27 27 28 28 29 29 30 31 31 32 32 32 33 33 34 35 36
42 41 42 41 41 40 40 38 35 34 36 36 35 36 34 34 32 32 30 29 28 28 27 27 26 26 26 25 27 27 28 28 28 29 30 30 30 31 31 31 32 33 33 33
MSLP
1014.81 1014.42 1014.02 1013.70 1013.37 1013.07 1013.15 1013.12 1012.96 1012.04 1011.28 1010.31 1009.89 1009.41 1008.80 1008.75 1008.59 1008.45 1008.70 1008.52 1008.57 1008.82 1008.76 1008.60 1008.19 1007.91 1007.70 1007.47 1007.25 1006.99 1006.82 1006.68 1006.50 1006.27 1006.06 1005.80 1005.54 1005.22 1004.82 1004.54 1004.35 1004.14 1004.07 1003.97
1015.30 1014.61 1014.12 1013.42 1012.58 1012.21 1011.95 1011.84 1011.62 1011.36 1010.86 1010.27 1009.78 1009.49 1009.27 1009.30 1009.33 1009.27 1009.12 1008.93 1008.85 1008.86 1008.86 1008.45 1008.04 1007.82 1007.49 1007.14 1006.81 1006.58 1006.35 1006.09 1005.75 1005.55 1005.38 1005.21 1004.98 1004.77 1004.40 1004.11 1003.98 1003.91 1003.79 1003.66
1015.62 1014.94 1014.24 1013.11 1011.74 1011.00 1010.88 1011.26 1011.23 1011.04 1010.99 1010.75 1010.41 1010.26 1010.07 1009.85 1009.74 1009.68 1009.40 1009.29 1009.11 1008.81 1008.57 1008.26 1007.91 1007.49 1007.14 1006.78 1006.46 1006.21 1005.89 1005.45 1005.09 1004.79 1004.54 1004.29 1004.10 1003.83 1003.56 1003.51 1003.46 1003.38 1003.25 1003.21
1015.89 1015.41 1014.22 1011.73 1010.79 1010.01 1010.62 1011.27 1011.13 1010.89 1010.90 1010.90 1010.59 1010.28 1010.39 1009.89 1009.74 1009.86 1009.60 1009.33 1009.30 1009.04 1008.59 1008.11 1007.59 1007.14 1006.81 1006.63 1006.31 1006.04 1005.65 1005.12 1004.70 1004.34 1003.85 1003.38 1003.03 1002.79 1002.56 1002.55 1002.42 1002.42 1002.38 1002.36
1016.00 1015.56 1013.56 1011.73 1011.23 1011.05 1011.04 1011.31 1011.22 1011.12 1011.04 1010.96 1010.75 1010.31 1010.00 1009.78 1009.59 1009.57 1009.56 1009.52 1009.12 1008.61 1008.10 1007.66 1007.35 1007.19 1007.03 1006.75 1006.38 1005.87 1005.26 1004.71 1004.21 1003.73 1003.07 1002.55 1001.70 1001.32 1001.30 1001.35 1001.48 1001.52 1001.42 1001.57
1015.64 1015.20 1013.72 1012.08 1011.54 1011.15 1011.05 1011.32 1011.13 1011.07 1011.04 1010.97 1010.80 1010.73 1010.44 1010.19 1010.07 1009.70 1009.38 1008.93 1008.51 1008.10 1007.89 1007.74 1007.36 1006.92 1006.67 1006.17 1005.65 1004.98 1004.37 1003.74 1003.37 1003.17 1002.38 1001.56 1001.01 1000.59 1000.28 1000.12 1000.29 1000.40 1000.46 1000.56
1014.88 1014.31 1012.93 1011.74 1011.23 1011.03 1011.52 1011.77 1011.20 1011.21 1010.89 1010.63 1010.78 1010.74 1010.16 1009.99 1009.69 1009.31 1008.93 1008.62 1008.37 1008.08 1007.82 1007.46 1006.95 1006.54 1006.01 1005.51 1004.82 1004.46 1003.66 1003.05 1002.76 1002.21 1001.80 1001.26 1000.63 1000.25 999.86 999.30 999.26 999.46 999.71 999.79
1014.38 1013.40 1012.66 1011.37 1011.04 1011.27 1011.02 1010.89 1010.87 1010.61 1010.38 1010.46 1010.54 1010.45 1010.18 1009.83 1009.46 1009.11 1008.79 1008.32 1008.02 1007.74 1007.34 1006.81 1006.39 1005.96 1005.35 1004.74 1004.26 1003.76 1003.19 1002.52 1001.93 1001.42 1000.86 1000.38 999.80 999.05 998.67 998.58 998.46 998.46 998.68 998.65
1014.25 1013.17 1012.24 1011.44 1011.07 1010.68 1010.60 1010.67 1010.38 1010.28 1010.14 1010.32 1010.45 1010.41 1010.11 1009.68 1009.33 1009.12 1008.77 1008.30 1008.12 1007.66 1006.74 1006.21 1005.95 1005.73 1004.80 1004.01 1003.72 1003.19 1002.49 1001.67 1001.10 1000.60 1000.07 999.70 999.27 998.74 998.10 997.87 997.82 997.66 997.72 997.68
1013.64 1012.77 1012.21 1011.76 1011.17 1010.71 1010.48 1010.33 1010.02 1009.93 1009.99 1010.10 1010.24 1010.12 1009.89 1009.52 1009.28 1008.98 1008.66 1008.28 1007.73 1007.04 1006.34 1005.66 1005.49 1005.13 1004.44 1003.74 1003.40 1002.61 1001.63 1000.81 1000.15 999.67 999.12 998.79 998.34 997.81 997.40 997.30 997.16 997.05 996.90 996.64
1012.73 1012.17 1011.81 1011.35 1010.92 1010.62 1010.31 1009.99 1010.02 1009.95 1010.01 1010.05 1010.08 1009.95 1009.61 1009.34 1009.12 1008.87 1008.48 1007.87 1007.45 1006.84 1006.07 1005.39 1004.92 1004.33 1003.72 1003.22 1002.63 1001.72 1000.74 999.91 999.31 998.82 998.31 997.73 997.46 997.03 996.55 996.14 996.18 996.05 995.92 995.99
1012.19 1011.75 1011.58 1011.16 1010.54 1010.13 1010.04 1009.88 1010.01 1010.16 1010.17 1010.11 1009.95 1009.70 1009.54 1009.39 1009.21 1008.81 1008.14 1007.53 1007.01 1006.50 1005.97 1005.10 1004.38 1003.62 1002.86 1002.29 1001.69 1000.83 999.69 999.07 998.47 997.88 997.30 996.89 996.57 996.19 995.97 995.84 995.72 995.68 995.75 995.80
1011.26 1010.79 1010.79 1010.43 1010.15 1009.73 1009.71 1010.09 1010.27 1010.33 1010.25 1009.98 1009.70 1009.59 1009.54 1009.42 1009.03 1008.48 1007.95 1007.29 1006.75 1006.15 1005.45 1004.56 1003.82 1002.96 1002.25 1001.46 1000.70 999.95 999.34 998.42 997.67 997.12 996.50 995.93 995.57 995.22 994.92 994.83 994.82 994.95 995.15 995.35
1010.35 1010.55 1010.41 1010.08 1010.08 1010.03 1010.10 1010.33 1010.37 1010.26 1010.03 1009.84 1009.65 1009.61 1009.54 1009.28 1008.71 1008.23 1007.62 1007.04 1006.40 1005.76 1004.89 1004.19 1003.35 1002.50 1001.66 1000.91 1000.23 999.38 998.35 997.45 996.73 996.05 995.60 995.08 994.76 994.40 994.15 994.06 994.05 993.89 994.11 994.42
1010.20 1010.07 1010.34 1010.20 1010.12 1010.33 1010.49 1010.57 1010.36 1010.19 1009.96 1009.85 1009.67 1009.59 1009.31 1008.90 1008.43 1007.87 1007.35 1006.76 1006.20 1005.46 1004.56 1003.81 1003.00 1001.97 1001.32 1000.57 999.55 998.28 997.22 996.24 995.51 994.89 994.41 994.08 993.81 993.53 993.36 993.21 993.18 993.26 993.44 993.55
1010.00 1010.03 1010.15 1010.36 1010.60 1010.71 1010.68 1010.57 1010.60 1010.30 1009.97 1009.74 1009.65 1009.45 1009.15 1008.83 1008.36 1007.79 1007.24 1006.64 1005.88 1005.01 1004.30 1003.55 1002.74 1001.81 1000.99 999.93 998.55 997.28 996.08 994.95 994.24 993.46 992.96 992.67 992.51 992.38 992.24 992.23 992.28 992.44 992.54 992.78
1010.10 1010.56 1010.59 1010.93 1011.10 1011.10 1011.03 1010.82 1010.56 1010.21 1009.90 1009.82 1009.59 1009.25 1009.01 1008.64 1008.22 1007.58 1006.98 1006.35 1005.89 1005.16 1004.40 1003.67 1002.64 1001.55 1000.38 999.20 998.13 996.82 995.46 993.86 992.82 992.16 991.71 991.29 991.20 991.07 991.02 991.13 991.30 991.52 991.76 992.07
1010.43 1010.71 1011.02 1011.27 1011.38 1011.22 1011.00 1010.79 1010.41 1010.19 1010.08 1009.77 1009.57 1009.40 1009.04 1008.76 1008.26 1007.54 1006.82 1006.15 1005.52 1004.91 1004.35 1003.64 1002.59 1001.28 1000.02 998.86 997.87 996.43 994.91 993.28 991.60 990.91 990.49 990.22 990.19 989.89 989.88 990.13 990.53 990.93 991.27 991.71
1010.65 1011.12 1011.30 1011.30 1011.24 1011.25 1011.10 1010.81 1010.62 1010.41 1010.12 1009.89 1009.77 1009.54 1009.28 1009.01 1008.43 1007.75 1007.01 1006.24 1005.56 1004.80 1003.98 1003.21 1002.13 1001.06 1000.02 998.67 997.55 996.02 994.36 992.80 991.68 990.93 990.20 989.81 989.58 989.33 988.95 989.57 990.06 990.46 990.79 991.03
1011.32 1011.31 1011.26 1011.26 1011.19 1011.23 1011.25 1011.18 1010.89 1010.54 1010.25 1010.16 1009.99 1009.62 1009.34 1008.93 1008.37 1007.75 1007.17 1006.60 1006.25 1005.69 1004.46 1003.27 1002.21 1001.15 1000.01 998.67 997.31 996.00 994.66 993.47 992.45 991.60 990.78 990.08 989.60 989.62 989.59 989.69 989.85 990.16 990.46 990.71
1011.66 1011.46 1011.37 1011.31 1011.41 1011.45 1011.55 1011.34 1011.08 1010.73 1010.57 1010.54 1010.11 1009.73 1009.54 1009.03 1008.48 1007.89 1007.25 1006.68 1006.14 1005.40 1004.47 1003.43 1002.56 1001.44 1000.17 999.04 997.65 996.54 995.45 994.40 993.40 992.60 991.89 991.07 990.35 989.84 989.87 989.86 989.90 990.03 990.21 990.47
1011.68 1011.51 1011.42 1011.53 1011.67 1011.89 1011.73 1011.55 1011.38 1011.06 1010.99 1010.75 1010.40 1010.05 1009.70 1009.15 1008.68 1008.21 1007.85 1007.55 1006.52 1005.66 1004.64 1003.74 1002.93 1001.83 1000.61 999.45 998.36 997.35 996.41 995.46 994.61 993.76 992.92 992.22 991.61 990.94 990.48 990.26 990.06 990.04 990.14 990.34
1011.78 1011.66 1011.70 1011.82 1011.95 1012.11 1012.03 1012.01 1011.85 1011.49 1011.33 1011.09 1010.69 1010.45 1010.19 1009.83 1009.28 1008.50 1007.55 1007.34 1006.85 1006.04 1005.07 1004.37 1003.48 1002.27 1001.12 1000.10 999.23 998.32 997.40 996.49 995.72 995.07 994.37 993.55 992.92 992.19 991.65 991.17 990.61 990.41 990.27 990.25
1011.92 1011.95 1012.00 1012.08 1012.21 1012.37 1012.45 1012.41 1012.27 1011.96 1011.68 1011.50 1011.16 1010.90 1010.68 1010.20 1009.60 1009.40 1008.88 1008.05 1007.34 1006.55 1005.82 1005.01 1004.11 1002.97 1001.90 1001.00 1000.15 999.33 998.42 997.63 996.85 996.22 995.54 994.85 994.14 993.41 992.86 992.39 991.84 991.35 990.78 990.48
1012.27 1012.33 1012.31 1012.41 1012.60 1012.84 1012.73 1012.75 1012.69 1012.46 1012.15 1011.94 1011.64 1011.33 1011.22 1010.93 1010.60 1010.06 1009.34 1008.50 1007.83 1007.12 1006.33 1005.59 1004.72 1003.79 1002.87 1002.05 1001.32 1000.50 999.70 998.83 998.15 997.30 996.63 996.00 995.37 994.81 994.27 993.69 993.23 992.70 992.05 991.62
1012.70 1012.76 1012.76 1012.80 1012.93 1013.08 1013.06 1013.12 1013.15 1013.11 1012.86 1012.52 1012.23 1011.90 1011.74 1011.33 1011.04 1010.61 1009.99 1009.24 1008.50 1007.84 1007.11 1006.32 1005.64 1004.80 1003.90 1003.16 1002.46 1001.66 1000.88 1000.08 999.19 998.44 997.81 997.22 996.68 995.95 995.48 994.96 994.37 993.81 993.36 992.84
1013.01 1012.93 1013.09 1013.16 1013.25 1013.27 1013.21 1013.39 1013.49 1013.64 1013.47 1013.16 1012.96 1012.57 1012.26 1011.97 1011.70 1011.23 1010.76 1010.12 1009.46 1008.74 1008.01 1007.26 1006.52 1005.85 1005.20 1004.33 1003.55 1002.81 1001.97 1001.24 1000.57 999.80 998.89 998.29 997.77 997.42 996.60 996.11 995.49 994.96 994.54 994.02
Wind_Speed
4 6 5 8 12 13 9 10 11 11 17 16 8 2 3 1 5 8 6 7 6 3 4 4 5 6 6 5 5 4 5 6 7 7 7 7 7 7 7 5 5 6 6 5
4 8 10 13 14 13 15 13 13 14 14 4 2 1 5 7 6 5 5 5 5 5 6 7 7 7 7 7 7 5 7 7 7 7 7 7 7 7 7 6 5 5 5 5
4 4 7 8 7 8 6 2 3 2 1 3 5 6 4 3 3 5 7 6 7 7 8 7 8 9 8 7 7 7 9 10 10 10 13 13 12 10 8 7 6 7 7 6
4 4 3 6 6 2 8 3 2 4 1 2 3 4 6 1 0 6 7 6 7 7 7 8 8 8 7 6 6 6 8 9 11 12 14 14 15 16 13 7 8 7 7 8
3 3 7 8 3 3 1 4 3 3 3 3 6 6 5 3 4 5 5 6 7 7 9 10 8 5 6 7 8 11 14 15 16 18 20 22 22 17 11 8 8 7 6 7
3 4 6 2 2 2 2 4 3 3 3 6 5 3 4 5 5 6 8 8 9 10 7 5 8 7 9 12 13 17 18 18 16 17 19 17 16 14 15 9 10 7 7 8
7 5 6 3 4 1 4 5 3 6 6 4 2 5 7 6 6 6 7 8 8 6 8 8 8 8 13 17 17 19 19 15 18 15 17 19 19 17 12 9 7 7 7 9
2 3 6 3 2 3 6 3 6 5 4 4 5 7 7 8 9 9 9 8 8 7 10 12 14 13 17 21 18 18 18 18 18 16 14 13 16 13 13 13 12 10 11 10
5 3 5 9 7 2 3 4 4 4 4 3 5 5 8 9 7 7 9 7 9 13 17 16 14 14 19 19 18 18 18 17 16 16 14 13 13 13 11 11 10 9 9 10
1 3 7 6 3 3 3 5 6 3 1 3 5 7 9 8 7 9 5 11 14 16 18 17 16 18 16 16 17 18 18 17 15 14 14 13 11 10 11 11 10 10 11 10
4 5 5 6 4 6 7 7 3 3 3 5 6 8 9 6 7 7 11 13 14 15 15 19 18 18 16 15 16 16 16 14 13 11 12 11 12 11 10 12 10 9 9 8
6 6 5 7 7 9 6 1 3 4 6 6 5 9 6 6 6 9 14 15 15 15 18 19 17 18 17 14 14 15 15 11 10 10 10 9 10 10 15 18 17 13 13 11
7 6 7 9 9 5 2 6 5 4 5 7 6 5 4 7 8 17 14 15 16 17 18 18 16 18 16 15 14 13 14 14 11 12 10 10 9 9 10 9 18 19 14 11
2 2 4 5 5 5 6 2 2 5 5 5 6 3 5 9 12 13 15 16 16 18 17 16 16 17 16 14 15 16 15 23 12 11 10 10 9 10 8 8 8 8 12 15
4 2 4 2 5 6 2 3 5 7 8 7 2 7 9 12 13 14 15 16 15 16 15 16 17 17 16 17 17 16 14 11 11 10 9 11 9 9 9 9 9 8 7 7
2 5 6 6 6 6 5 7 6 8 7 5 6 9 10 11 12 14 15 15 15 15 17 16 16 18 18 18 17 14 13 19 16 10 9 8 8 9 9 9 8 8 7 7
6 5 5 4 6 5 5 6 6 8 8 6 7 9 10 12 14 16 16 15 14 14 14 14 18 18 18 17 16 12 12 13 13 9 8 8 8 9 8 8 8 7 8 6
4 6 7 5 2 4 6 7 8 8 4 7 7 8 12 12 15 17 16 16 14 12 12 14 17 19 18 17 15 13 11 11 10 7 7 5 7 7 7 7 7 7 6 8
8 10 5 3 4 5 6 8 7 5 7 6 7 10 11 13 15 14 16 16 14 16 16 18 26 21 17 20 19 12 10 11 10 9 8 3 1 4 1 5 5 5 6 6
8 4 5 6 6 5 7 6 6 7 8 6 8 9 12 14 14 13 14 14 12 12 18 18 18 15 17 18 23 10 11 11 10 9 9 8 3 3 3 3 4 4 5 5
5 4 4 5 6 6 5 5 8 9 8 6 9 11 11 14 12 12 11 12 16 16 19 21 15 13 12 15 13 10 11 11 10 10 10 10 10 5 3 2 3 4 3 5
3 2 4 6 5 5 4 6 8 9 5 11 11 9 13 14 13 13 9 12 12 19 15 11 12 19 15 17 10 11 11 11 10 9 10 10 10 9 7 4 3 3 3 3
4 2 5 5 5 4 4 5 8 9 4 11 12 8 13 10 9 12 13 15 12 16 11 11 19 22 20 11 10 11 12 12 11 10 10 10 9 9 8 7 4 3 2 2
3 4 4 4 6 5 6 5 6 9 8 8 11 7 11 10 9 9 10 13 17 17 12 14 17 21 17 10 11 11 11 11 11 10 10 12 9 9 9 9 8 7 7 5
5 4 5 6 6 3 5 5 5 6 10 8 10 7 11 8 9 10 11 11 16 15 12 17 20 20 12 11 12 11 11 11 11 10 10 10 10 9 9 9 8 8 7 7
5 4 3 4 3 3 3 4 4 4 7 8 7 7 6 8 10 10 11 14 13 14 12 12 12 13 12 12 12 12 11 11 12 11 11 10 10 10 10 10 9 9 8 7
3 6 5 5 4 3 4 4 4 5 5 7 7 8 6 8 10 11 14 12 12 12 12 12 12 14 13 12 12 12 12 11 14 12 11 10 10 9 10 9 8 8 7 8
Wind_Direction
252 272 294 286 273 274 250 230 227 264 257 270 286 313 357 296 340 59 51 28 25 359 334 313 322 321 308 287 297 302 304 298 286 277 271 273 272 269 273 271 266 274 280 263
258 244 258 275 281 277 264 261 259 262 266 332 227 38 27 22 53 35 13 345 321 289 279 291 291 277 270 270 273 266 267 262 260 267 271 265 262 264 260 252 249 254 270 275
262 347 321 283 238 256 232 134 213 218 212 307 1 348 347 78 40 352 327 299 286 298 302 293 284 281 261 259 268 263 264 267 269 273 275 275 268 252 241 236 230 242 248 253
259 19 253 239 317 247 128 133 331 119 358 217 238 266 258 169 188 275 284 319 312 297 293 285 275 278 283 288 292 285 280 284 285 282 278 276 274 264 249 223 222 219 224 235
180 207 290 308 16 1 132 224 216 215 234 277 304 323 301 325 350 344 331 281 259 259 274 298 311 315 307 300 292 294 291 287 283 280 283 278 268 259 251 222 227 220 220 241
170 204 230 181 304 234 197 255 263 306 302 278 320 311 237 298 283 271 275 276 288 290 303 312 282 269 277 285 288 289 292 287 286 284 269 273 280 279 264 221 227 217 224 226
219 233 271 228 276 187 106 222 249 277 263 297 275 225 281 296 294 274 274 289 293 293 280 267 276 275 287 293 289 299 291 299 292 283 291 285 276 272 278 253 229 229 234 249
252 225 255 242 313 193 222 232 237 265 277 284 280 293 295 298 293 301 309 308 299 299 301 301 295 296 300 294 297 296 293 288 286 281 273 286 283 273 258 254 249 241 249 252
208 258 317 321 235 293 198 218 262 284 273 297 295 279 287 290 298 296 296 313 320 307 299 304 303 307 300 296 301 296 291 285 283 282 276 279 283 286 268 250 247 246 250 249
60 241 249 226 286 311 294 289 275 268 279 303 288 295 295 288 296 310 327 312 311 308 304 304 314 302 291 297 295 291 287 285 283 275 273 270 269 260 252 252 250 248 245 237
256 274 304 233 258 264 269 274 312 356 307 313 306 299 283 293 317 318 311 311 312 306 303 307 307 302 299 296 292 289 286 283 279 273 269 268 263 258 260 244 237 240 234 233
238 214 193 248 264 262 260 8 21 358 340 318 283 292 303 317 303 309 310 313 308 307 311 305 303 302 300 296 287 285 285 283 275 271 268 260 258 261 250 259 274 278 274 260
234 221 210 253 260 268 120 51 34 1 313 304 299 317 331 316 314 315 310 309 309 313 308 304 302 302 304 302 297 287 290 291 286 280 274 263 258 250 256 243 239 245 238 239
244 238 297 273 289 69 90 62 314 283 297 303 315 332 316 310 314 314 314 312 315 311 306 305 305 305 308 303 302 296 289 285 279 273 264 260 253 255 249 240 246 238 230 229
313 278 250 312 56 46 63 349 2 339 317 322 355 333 321 317 317 317 319 318 311 309 309 314 312 312 318 311 305 297 293 286 278 269 260 254 252 251 245 240 238 231 232 228
3 21 21 29 54 38 27 357 338 315 320 325 333 324 314 314 317 319 321 323 321 322 318 317 316 318 317 312 308 304 297 286 274 266 258 246 240 241 237 235 232 230 222 223
55 354 353 48 33 15 345 311 310 313 325 339 308 308 321 329 324 325 326 327 323 314 314 319 319 318 315 315 313 306 301 295 285 267 256 242 236 234 230 226 222 219 215 215
53 72 84 87 80 340 339 330 321 333 333 305 309 328 333 337 331 329 327 330 325 324 325 323 321 321 321 317 316 308 300 294 299 271 270 251 241 241 221 214 211 201 205 202
69 84 83 56 357 355 337 329 341 334 320 326 350 337 338 334 332 330 332 333 334 333 335 330 328 331 324 321 329 314 313 323 336 343 346 8 339 347 68 168 182 191 201 183
68 76 42 12 3 348 343 5 338 340 342 9 337 336 345 341 335 337 340 339 343 329 329 326 333 330 329 326 331 329 334 337 345 349 354 352 359 63 83 133 156 168 180 179
84 51 4 339 350 16 44 353 359 348 357 3 348 343 350 340 339 337 342 345 344 339 335 336 339 336 333 333 335 341 346 349 352 354 356 355 356 19 96 93 114 132 154 158
353 60 345 20 61 60 19 13 1 3 25 1 358 355 352 352 350 352 349 352 339 341 339 342 343 340 338 340 344 351 355 357 358 358 359 358 0 3 14 45 71 94 125 147
1 18 44 66 60 88 19 23 16 6 17 12 3 6 3 358 349 353 351 352 350 343 345 349 346 347 346 354 357 358 360 2 2 2 359 355 360 2 5 7 23 68 119 178
40 68 61 62 65 66 29 19 19 11 9 9 7 16 8 1 2 3 346 343 351 354 353 351 352 351 357 359 3 3 2 2 3 2 2 3 4 3 10 9 8 1 6 24
98 50 52 46 68 63 25 34 24 11 17 15 8 7 16 20 7 352 349 352 357 359 359 356 359 358 3 4 5 5 4 3 3 2 5 6 5 6 8 5 9 3 3 8
76 71 63 45 99 92 37 48 46 8 18 15 11 6 14 15 8 7 2 360 1 3 4 0 2 3 3 4 6 7 7 4 8 6 6 7 10 6 7 5 5 6 4 0
62 67 55 30 48 84 49 67 78 32 22 19 16 3 7 12 13 15 11 7 6 5 5 6 5 7 4 4 7 10 10 11 13 8 6 9 12 12 6 5 2 2 6 9